Lake Tohopekaliga Weather Center

Moon Phase Calendar



Lake Tohopekaliga Water Level
Online Cameras

 


      

Current Conditions in Campbell
5/16/2022 2:22:47 AM

68°F
Feels Like 70
Clouds
Humidity
96%
Pressure
29.91"
Wind
3.4 mph (W)
Dew Point
67°F
UV Index
0/10 (Low)
Visibility
6 mi

Hourly Forecast

Date & Time Mon, May 16
2:00 AM
Mon, May 16
3:00 AM
Mon, May 16
4:00 AM
Mon, May 16
5:00 AM
Mon, May 16
6:00 AM
Mon, May 16
7:00 AM
Mon, May 16
8:00 AM
Mon, May 16
9:00 AM
Mon, May 16
10:00 AM
Mon, May 16
11:00 AM
Mon, May 16
12:00 PM
Mon, May 16
1:00 PM
Mon, May 16
2:00 PM
Mon, May 16
3:00 PM
Mon, May 16
4:00 PM
Mon, May 16
5:00 PM
Mon, May 16
6:00 PM
Mon, May 16
7:00 PM
Mon, May 16
8:00 PM
Mon, May 16
9:00 PM
Mon, May 16
10:00 PM
Mon, May 16
11:00 PM
Tue, May 17
12:00 AM
Tue, May 17
1:00 AM
Tue, May 17
2:00 AM
Tue, May 17
3:00 AM
Tue, May 17
4:00 AM
Tue, May 17
5:00 AM
Tue, May 17
6:00 AM
Tue, May 17
7:00 AM
Tue, May 17
8:00 AM
Tue, May 17
9:00 AM
Tue, May 17
10:00 AM
Tue, May 17
11:00 AM
Tue, May 17
12:00 PM
Tue, May 17
1:00 PM
Tue, May 17
2:00 PM
Tue, May 17
3:00 PM
Tue, May 17
4:00 PM
Tue, May 17
5:00 PM
Tue, May 17
6:00 PM
Tue, May 17
7:00 PM
Tue, May 17
8:00 PM
Tue, May 17
9:00 PM
Tue, May 17
10:00 PM
Tue, May 17
11:00 PM
Wed, May 18
12:00 AM
Wed, May 18
1:00 AM
Condition
Clouds

Clouds

Clouds

Clear

Clear

Clear

Clear

Clear

Clear

Clear

Clear

Clear

Clear

Clear

Clear

Clear

Clear

Clouds

Clouds

Clear

Clear

Clear

Clear

Clear

Clear

Clear

Clear

Clear

Clear

Clear

Clear

Clear

Clear

Clear

Clear

Clear

Clear

Clear

Clear

Clear

Clear

Clear

Clear

Rain

Clouds

Clouds

Clouds

Clouds
Temperature 68°F69°F69°F69°F68°F68°F72°F76°F80°F84°F87°F89°F91°F92°F93°F92°F90°F87°F82°F78°F77°F76°F74°F72°F72°F71°F70°F70°F69°F69°F73°F78°F82°F85°F89°F92°F94°F95°F95°F95°F94°F92°F85°F81°F79°F78°F76°F75°F
Feels Like 70°F70°F70°F69°F69°F69°F73°F77°F82°F84°F86°F88°F89°F90°F90°F90°F88°F86°F82°F78°F77°F76°F74°F73°F72°F71°F71°F70°F69°F70°F74°F78°F83°F85°F88°F90°F92°F93°F93°F92°F91°F90°F85°F82°F79°F78°F77°F76°F
Cloudiness 20%16%12%8%4%0%0%0%0%0%0%0%0%0%0%5%10%15%13%0%6%4%3%2%2%0%0%0%0%0%0%0%0%0%0%0%0%0%0%0%0%1%2%25%27%21%24%23%
Visibility 6 mi6 mi6 mi6 mi6 mi6 mi6 mi6 mi6 mi6 mi6 mi6 mi6 mi6 mi6 mi6 mi6 mi6 mi6 mi6 mi6 mi6 mi6 mi6 mi6 mi6 mi6 mi6 mi6 mi6 mi6 mi6 mi6 mi6 mi6 mi6 mi6 mi6 mi6 mi6 mi6 mi6 mi6 mi6 mi6 mi6 mi6 mi6 mi
Precipitation 78%0%0%0%0%0%0%0%0%0%0%0%0%0%0%0%0%0%0%0%0%0%0%0%0%0%0%0%0%0%0%0%0%0%0%0%0%0%0%0%0%0%2%24%25%19%19%15%
Humidity 96%94%93%92%91%89%80%69%58%47%38%32%28%26%25%25%29%38%46%52%57%59%64%70%74%77%80%82%85%85%76%65%53%43%36%31%27%26%24%24%24%30%40%51%59%62%66%70%
Dew Point 67°F67°F67°F66°F66°F65°F65°F65°F64°F61°F58°F56°F54°F53°F52°F52°F54°F58°F59°F59°F60°F60°F61°F62°F63°F63°F63°F64°F64°F64°F65°F65°F63°F61°F58°F57°F55°F54°F53°F53°F52°F56°F58°F61°F63°F64°F64°F65°F
Pressure 29.91"29.91"29.91"29.88"29.91"29.91"29.94"29.94"29.94"29.94"29.94"29.91"29.88"29.88"29.85"29.83"29.83"29.85"29.88"29.91"29.94"29.94"29.94"29.94"29.91"29.91"29.91"29.94"29.97"29.97"30"30.03"30"30"30"29.97"29.94"29.94"29.91"29.88"29.91"29.91"29.94"29.97"30"30"30"30"
Wind Speed 4.3 mph4.3 mph4.8 mph4.2 mph4.7 mph5.1 mph4.4 mph5.2 mph6.7 mph7.6 mph8 mph8.2 mph8.3 mph8 mph8.9 mph11.3 mph13.3 mph12.6 mph8.6 mph3.5 mph3.3 mph6.3 mph6.6 mph6.9 mph6.8 mph6.2 mph5.6 mph5.8 mph5.6 mph4.8 mph4.9 mph6.7 mph6.6 mph6.4 mph5.3 mph4.3 mph3.9 mph3.9 mph3.8 mph2.6 mph1.6 mph4.6 mph6.5 mph2.4 mph2.2 mph3.9 mph2.9 mph1.2 mph
Wind
Direction
275°
W
276°
W
256°
WSW
264°
W
258°
WSW
258°
WSW
248°
WSW
248°
WSW
256°
WSW
255°
WSW
255°
WSW
255°
WSW
257°
WSW
258°
WSW
255°
WSW
262°
W
273°
W
284°
WNW
283°
WNW
282°
WNW
279°
W
285°
WNW
278°
W
270°
W
274°
W
271°
W
260°
W
260°
W
256°
WSW
250°
WSW
261°
W
264°
W
264°
W
269°
W
279°
W
285°
WNW
295°
WNW
314°
NW
339°
NNW

N
43°
NE
106°
ESE
110°
ESE
106°
ESE

N
97°
E
106°
ESE
76°
ENE

Daily Forecast

Date High Low Precip. Humidity
Today
May 16

Clear
93 °F
68 °F
77%
30%
Tuesday
May 17

Clear
96 °F
69 °F
27%
31%
Wednesday
May 18

Rain
98 °F
73 °F
32%
30%
Thursday
May 19

Rain
95 °F
72 °F
79%
34%
Friday
May 20

Rain
96 °F
71 °F
100%
33%
Saturday
May 21

Rain
91 °F
72 °F
99%
44%
Sunday
May 22

Rain
86 °F
71 °F
47%
54%
Monday
May 23

Rain
82 °F
72 °F
74%
64%
Tuesday
May 24

Rain
72 °F
71 °F
100%
92%
Wednesday
May 25

Rain
76 °F
72 °F
100%
93%
Thursday
May 26

Rain
87 °F
77 °F
100%
65%
Friday
May 27

Rain
92 °F
74 °F
39%
49%
Saturday
May 28

Clouds
94 °F
75 °F
8%
44%
Sunday
May 29

Clouds
95 °F
74 °F
3%
43%
Monday
May 30

Rain
94 °F
74 °F
88%
39%
Tuesday
May 31

Rain
93 °F
74 °F
84%
46%

Temperature 8-14 Day Outlook



Precipitation 8-14 Day Outlook




Quick Links
Lake Tohopekaliga News
Lake Tohopekaliga Photos
Lake Tohopekaliga Videos




About Us
Contact Us
Site Map
Search Site
Advertise With Us
   
Tohopekaliga.USLakes.info
THE LAKE TOHOPEKALIGA WEBSITE

Copyright 2022, Lakes Online
Privacy    |    Legal